Regional Weather Roundup
Issued by NWS

Home | Current Version | Previous Version | Text Only | Print | Product List | Glossary Off
Versions: 1 2 3 4 5 6 7 8 9 10 11 12 13 14 15 16 17 18 19 20 21 22 23 24 25 26 27 28 29 30 31 32 33 34 35 36 37 38 39 40 41 42 43 44 45 46 47 48 49 50

000
ASUS45 KCYS 050710
RWRWY

WYOMING REGIONAL WEATHER ROUNDUP
NATIONAL WEATHER SERVICE CHEYENNE WY
1200 AM MST THU MAR 05 2015

NOTE:  "FAIR" INDICATES FEW OR NO CLOUDS BELOW 12,000 FEET
WITH NO SIGNIFICANT WEATHER AND/OR OBSTRUCTIONS TO VISIBILITY.

WYZ001-050800-
YELLOWSTONE NATIONAL PARK

CITY           SKY/WX    TMP DP  RH WIND       PRES   REMARKS
LK YELLOWSTONE   N/A     -5 -10  79 CALM      30.20R
W YELLOWSTONE  NOT AVBL

$$
WYZ002>013-054>058-071-098>099-050800-
NORTHERN WYOMING

CITY           SKY/WX    TMP DP  RH WIND       PRES   REMARKS
JACKSON        FAIR       1  -2  85 N7        30.24R WCI -11
CODY           FAIR      18   3  53 NE5G23    30.07R WCI  11
GREYBULL       FAIR      12   3  67 SE3       30.19S
WORLAND        FAIR      11   0  61 CALM      30.17S
SHERIDAN       FAIR      -1  -8  72 CALM      30.09S
BUFFALO        FAIR      16  -5  39 CALM      30.06F
GILLETTE       FAIR      15  -2  46 SW16      30.08F WCI  -1
HULETT         FAIR      14   3  62 SW9       30.11F WCI   2
NEWCASTLE      FAIR       5   0  78 MISG      30.17F

$$
WYZ014>020-022>026-101>103-050800-
CENTRAL WYOMING

CITY           SKY/WX    TMP DP  RH WIND       PRES   REMARKS
BIG PINEY      FAIR       8   1  73 NW3       30.20S
PINEDALE       FAIR       5  -4  66 NW16      30.19S WCI -14
DUBOIS         FAIR      14   0  52 NW22G29   30.11R WCI  -4
LANDER         FAIR       4  -1  80 SW6       30.11F WCI  -7
RIVERTON       FAIR      -2  -7  79 MISG      30.14S
CASPER         FAIR      13   2  61 SW14      30.13S WCI  -2
DOUGLAS        FAIR      -8 -13  78 CALM      30.16S

$$
WYZ021-027>030-104>119-050800-
SOUTHERN WYOMING

CITY           SKY/WX    TMP DP  RH WIND       PRES   REMARKS
EVANSTON       FAIR      13   7  77 SW12      30.26S WCI  -1
FORT BRIDGER   FAIR      19  10  68 SW17G23   30.26F WCI   3
ROCK SPRINGS   FAIR      14   7  73 W16       30.21R WCI  -2
DIXON          FAIR       6   0  76 E8        30.30R WCI  -6
RAWLINS        FAIR      14   3  61 SW10G20   30.15S WCI   1
SARATOGA       FAIR       7  -2  66 S13       30.19R WCI  -9
LARAMIE        FAIR       5  -4  66 S7        30.10R WCI  -7
CHEYENNE       FAIR       7  -2  66 SW3       30.12F
TORRINGTON     FAIR      10   1  67 W6        30.21S WCI   0
PINE BLUFFS    FAIR       9   3  78 SW5       30.20S WCI   0

$$



USA.gov is the U.S. government's official web portal to all federal, state and local government web resources and services.